Regional Weather Roundup
Issued by NWS Cleveland, OH

Home | Current Version | Previous Version | Text Only | Print | Product List | Glossary Off
Versions: 1 2 3 4 5 6 7 8 9 10 11 12 13 14 15 16 17 18 19 20 21 22 23 24 25 26 27 28 29 30 31 32 33 34 35 36 37 38 39 40 41 42 43 44 45 46 47 48 49 50

000
ASUS41 KCLE 051210
RWRCLE
OHIO REGIONAL WEATHER ROUNDUP
NATIONAL WEATHER SERVICE CLEVELAND, OH
700 AM EST THU MAR 05 2015

NOTE: "FAIR" INDICATES FEW OR NO CLOUDS BELOW 12,000 FEET WITH NO
SIGNIFICANT WEATHER AND/OR OBSTRUCTIONS TO VISIBILITY.

OHZ001>008-015>018-024>027-034-035-043-044-051300-
   NORTHWEST OHIO

CITY           SKY/WX    TMP DP  RH WIND       PRES   REMARKS
DEFIANCE       MOCLDY    13   0  56 N6        30.36R WCI   4
FINDLAY        CLOUDY    15   3  59 N8        30.31R WCI   4
TOLEDO EXPRESS PTCLDY    11   0  61 N7        30.33R WCI   0
TOLEDO EXEC    MOCLDY    14   2  58 N7        30.33R WCI   4
LIMA           CLOUDY    15   2  56 N9        30.31R WCI   3
$$

OHZ009>014-019>023-028>033-038-089-051300-
   NORTHEAST OHIO

CITY           SKY/WX    TMP DP  RH WIND       PRES   REMARKS
CLE-HOPKINS    CLOUDY    12   5  73 NE17      30.31S WCI  -5
CLE-LAKEFRONT  CLOUDY    12   3  67 N15       30.31R WCI  -4
CUY CO. ARPT   MOCLDY    10   5  79 NE14      30.28  WCI  -5
LORAIN-ELYRIA  CLOUDY    13   4  67 NE13      30.28F WCI  -2
ASHTABULA      CLOUDY     9  -1  64 N6        30.27F WCI  -1
AKRON-CANTON   CLOUDY    15   4  61 NE12      30.21S WCI   2
WOOSTER        CLOUDY    13   2  61 N9        30.24R WCI   1
MANSFIELD      CLOUDY    13   3  64 N10       30.22F WCI   0
YOUNGSTOWN     CLOUDY    12   0  58 N17       30.23R WCI  -5
$$

OHZ042-051>053-060>062-070>072-077>081-051300-
  SOUTHWEST OHIO

CITY           SKY/WX    TMP DP  RH WIND       PRES   REMARKS
CINC-COVINGTON LGT SNOW  18  11  74 N10       30.28R FOG     WCI   6
CINC-LUNKEN    LGT SNOW  18  13  80 N7        30.32S WCI   9
HAMILTON       CLOUDY    20   7  57 N9        30.32R WCI   9
DAYTON         CLOUDY    17   5  59 N13       30.30R WCI   4
WRIGHT-PAT AFB CLOUDY    17   4  54 N10       30.30R WCI   5
DAYTON GENERAL CLOUDY    18   5  57 N15       30.28R WCI   4
WILMINGTON     CLOUDY    17   4  56 N15       30.26R WCI   2
$$

OHZ036-037-039>041-045>050-054>059-063>069-073>076-082>088-051300-
  CENTRAL AND SOUTHEAST OHIO

CITY           SKY/WX    TMP DP  RH WIND       PRES   REMARKS
COLUMBUS       CLOUDY    17   4  56 N9        30.26S WCI   6
OSU AIRPORT    CLOUDY    17   3  54 N13       30.27R WCI   4
BOLTON FIELD   NOT AVBL
RICKENBACK AFB CLOUDY    18   6  60 N8        30.26F WCI   7
NEWARK         CLOUDY    19   5  54 NE7       30.24F WCI  10
MARION         CLOUDY    15   4  61 N10       30.26S WCI   2
LANCASTER      LGT SNOW  17  12  80 NE5       30.25S WCI  10
ZANESVILLE     LGT SNOW  16  12  84 N5        30.24R FOG     WCI   9
NEW PHILLY     CLOUDY    19   4  51 N8        30.25R WCI   9
$$



USA.gov is the U.S. government's official web portal to all federal, state and local government web resources and services.